Tarboro, NC

8:54 AM EDT on June 23, 2017 (GMT -0400)
Tarboro-edgecombe

Weather History for KETC - November, 2012

Change the Weather History Date:

Friday, November 9, 2012

  Actual Average Record
Temperature  
Mean Temperature 44 °F -  
Max Temperature 62 °F 66 °F 80 °F (1987)
Min Temperature 27 °F 39 °F 14 °F (1976)
Degree Days  
Heating Degree Days 20    
Moisture  
Dew Point 31 °F    
Average Humidity 69    
Maximum Humidity 95    
Minimum Humidity 29    
Precipitation  
Precipitation 0.00 in - - ()
Sea Level Pressure  
Sea Level Pressure 30.20 in    
Wind  
Wind Speed 2 mph (NW)    
Max Wind Speed 8 mph    
Max Gust Speed -    
Visibility 10 miles    
Events      
Averages and records for this station are not official NWS values.
T = Trace of Precipitation, MM = Missing Value Source: NWS Daily Summary

Daily Weather History Graph

Daily Weather History Graph

Search for Another Location

Airport or City:

Trip Planner

Search our weather history database for the weather conditions in past years. The results will help you decide how hot, cold, wet, or windy it might be!

Date:

Astronomy

Nov. 09, 2012 Rise Set
Actual Time 6:40 AM EST 5:06 PM EST
Civil Twilight 6:14 AM EST 5:33 PM EST
Nautical Twilight 5:43 AM EST 6:04 PM EST
Astronomical Twilight 5:13 AM EST 6:34 PM EST
Moon 1:46 AM EST (11/9) 2:11 PM EST (11/9)
Length of Visible Light 11h 19m
Length of Day
10h 25m
Waning Crescent, 23% of the Moon is Illuminated
Nov 9
Waning Crescent
Nov 13
New
Nov 20
First Quarter
Nov 28
Full
Dec 6
Last Quarter

Hourly Weather History & Observations

Time (EST) Temp. Windchill Dew Point Humidity Pressure Visibility Wind Dir Wind Speed Gust Speed Precip Events Conditions
12:15 AM 37.9 °F 34.4 °F 27.0 °F 65% 30.10 in 10.0 mi West 4.6 mph - N/A   Clear
12:35 AM 35.1 °F - 27.5 °F 74% 30.10 in 10.0 mi Calm Calm - N/A   Clear
12:55 AM 34.5 °F - 28.0 °F 77% 30.10 in 10.0 mi Calm Calm - N/A   Clear
1:15 AM 32.9 °F - 28.0 °F 82% 30.10 in 10.0 mi Calm Calm - N/A   Clear
1:35 AM 31.8 °F - 27.9 °F 85% 30.10 in 10.0 mi Calm Calm - N/A   Clear
1:55 AM 31.5 °F - 28.2 °F 88% 30.11 in 10.0 mi Calm Calm - N/A   Clear
2:15 AM 31.3 °F - 28.4 °F 89% 30.12 in 10.0 mi Calm Calm - N/A   Clear
2:35 AM 30.7 °F - 28.0 °F 90% 30.12 in 10.0 mi Calm Calm - N/A   Clear
2:55 AM 30.2 °F - 27.7 °F 90% 30.13 in 10.0 mi Calm Calm - N/A   Clear
3:15 AM 29.7 °F - 27.3 °F 91% 30.13 in 10.0 mi Calm Calm - N/A   Clear
3:35 AM 29.7 °F - 27.3 °F 91% 30.14 in 10.0 mi Calm Calm - N/A   Clear
3:55 AM 29.5 °F - 27.1 °F 91% 30.14 in 10.0 mi Calm Calm - N/A   Clear
4:15 AM 28.9 °F - 26.6 °F 91% 30.15 in 10.0 mi Calm Calm - N/A   Clear
4:35 AM 28.9 °F - 27.1 °F 93% 30.15 in 10.0 mi Calm Calm - N/A   Clear
4:55 AM 29.8 °F - 28.0 °F 93% 30.16 in 10.0 mi Calm Calm - N/A   Clear
5:15 AM 29.1 °F - 27.1 °F 92% 30.17 in 10.0 mi Calm Calm - N/A   Clear
5:35 AM 28.4 °F - 26.4 °F 92% 30.17 in 10.0 mi Calm Calm - N/A   Clear
5:55 AM 27.7 °F - 25.5 °F 92% 30.18 in 10.0 mi Calm Calm - N/A   Clear
6:15 AM 28.0 °F - 26.2 °F 93% 30.18 in 10.0 mi Calm Calm - N/A   Clear
6:35 AM 27.9 °F - 26.1 °F 93% 30.19 in 10.0 mi Calm Calm - N/A   Clear
6:55 AM 28.0 °F - 26.1 °F 92% 30.20 in 10.0 mi Calm Calm - N/A   Clear
7:15 AM 28.2 °F - 26.1 °F 92% 30.21 in 10.0 mi Calm Calm - N/A   Clear
7:35 AM 30.4 °F - 28.2 °F 92% 30.22 in 10.0 mi Calm Calm - N/A   Clear
7:55 AM 32.7 °F - 30.6 °F 92% 30.23 in 10.0 mi Calm Calm - N/A   Clear
8:15 AM 37.2 °F 34.7 °F 32.0 °F 81% 30.24 in 10.0 mi WNW 3.5 mph - N/A   Clear
8:35 AM 41.9 °F 40.0 °F 31.6 °F 67% 30.25 in 10.0 mi NW 3.5 mph - N/A   Clear
8:55 AM 44.8 °F - 31.6 °F 60% 30.25 in 10.0 mi Calm Calm - N/A   Clear
9:15 AM 48.0 °F - 31.6 °F 53% 30.25 in 10.0 mi NNW 3.5 mph - N/A   Clear
9:35 AM 50.5 °F - 30.4 °F 46% 30.26 in 10.0 mi NNW 3.5 mph - N/A   Clear
9:55 AM 52.2 °F - 28.9 °F 41% 30.26 in 10.0 mi North 5.8 mph - N/A   Clear
10:15 AM 53.4 °F - 27.5 °F 37% 30.26 in 10.0 mi NNW 5.8 mph - N/A   Clear
10:35 AM 54.7 °F - 27.7 °F 35% 30.26 in 10.0 mi NW 4.6 mph - N/A   Clear
10:55 AM 55.8 °F - 27.5 °F 34% 30.25 in 10.0 mi West 6.9 mph - N/A   Clear
11:15 AM 56.7 °F - 27.3 °F 33% 30.24 in 10.0 mi Calm Calm - N/A   Clear
11:35 AM 57.9 °F - 27.9 °F 32% 30.23 in 10.0 mi NNE 4.6 mph - N/A   Clear
11:55 AM 58.6 °F - 28.2 °F 31% 30.23 in 10.0 mi North 4.6 mph - N/A   Clear
12:15 PM 59.4 °F - 29.1 °F 32% 30.22 in 10.0 mi NNW 4.6 mph - N/A   Clear
12:35 PM 60.3 °F - 29.7 °F 31% 30.21 in 10.0 mi North 5.8 mph - N/A   Clear
12:55 PM 60.3 °F - 29.1 °F 31% 30.21 in 10.0 mi NW 3.5 mph - N/A   Clear
1:15 PM 61.0 °F - 29.3 °F 30% 30.21 in 10.0 mi West 6.9 mph - N/A   Clear
1:35 PM 61.5 °F - 29.3 °F 30% 30.20 in 10.0 mi West 8.1 mph - N/A   Clear
1:55 PM 61.9 °F - 29.5 °F 29% 30.20 in 10.0 mi Calm Calm - N/A   Clear
2:15 PM 61.9 °F - 30.2 °F 30% 30.20 in 10.0 mi West 5.8 mph - N/A   Clear
2:35 PM 62.2 °F - 30.6 °F 30% 30.19 in 10.0 mi West 4.6 mph - N/A   Clear
2:55 PM 62.6 °F - 30.2 °F 30% 30.19 in 10.0 mi West 5.8 mph - N/A   Clear
3:15 PM 62.4 °F - 30.0 °F 30% 30.20 in 10.0 mi West 4.6 mph - N/A   Clear
3:35 PM 62.4 °F - 30.2 °F 30% 30.20 in 10.0 mi Calm Calm - N/A   Clear
3:55 PM 62.1 °F - 30.9 °F 31% 30.20 in 10.0 mi NW 4.6 mph - N/A   Clear
4:15 PM 61.3 °F - 31.1 °F 32% 30.20 in 10.0 mi WNW 3.5 mph - N/A   Clear
4:35 PM 60.1 °F - 31.5 °F 34% 30.20 in 10.0 mi WNW 3.5 mph - N/A   Clear
4:55 PM 58.3 °F - 31.8 °F 37% 30.20 in 10.0 mi Calm Calm - N/A   Clear
5:15 PM 54.1 °F - 34.9 °F 48% 30.21 in 10.0 mi Calm Calm - N/A   Clear
5:35 PM 49.1 °F - 37.0 °F 63% 30.21 in 10.0 mi Calm Calm - N/A   Clear
5:55 PM 47.1 °F - 38.5 °F 72% 30.21 in 10.0 mi Calm Calm - N/A   Clear
6:15 PM 45.0 °F - 39.2 °F 80% 30.22 in 10.0 mi Calm Calm - N/A   Clear
6:35 PM 43.2 °F - 39.4 °F 86% 30.22 in 10.0 mi Calm Calm - N/A   Clear
6:55 PM 42.3 °F - 39.4 °F 90% 30.22 in 10.0 mi Calm Calm - N/A   Clear
7:15 PM 41.2 °F - 38.5 °F 90% 30.23 in 10.0 mi Calm Calm - N/A   Clear
7:35 PM 40.1 °F - 37.9 °F 92% 30.23 in 10.0 mi Calm Calm - N/A   Clear
7:55 PM 39.7 °F - 37.6 °F 92% 30.23 in 10.0 mi Calm Calm - N/A   Clear
8:15 PM 39.2 °F - 37.0 °F 92% 30.24 in 10.0 mi Calm Calm - N/A   Clear
8:55 PM 38.1 °F - 36.1 °F 93% 30.25 in 10.0 mi Calm Calm - N/A   Clear
9:15 PM 37.6 °F - 35.8 °F 93% 30.25 in 10.0 mi Calm Calm - N/A   Clear
9:35 PM 37.4 °F - 35.6 °F 93% 30.26 in 10.0 mi Calm Calm - N/A   Clear
9:55 PM 36.7 °F - 35.1 °F 94% 30.26 in 10.0 mi Calm Calm - N/A   Clear
10:15 PM 36.7 °F - 34.9 °F 93% 30.26 in 10.0 mi Calm Calm - N/A   Clear
10:35 PM 35.8 °F - 34.0 °F 93% 30.27 in 10.0 mi Calm Calm - N/A   Clear
10:55 PM 35.6 °F - 34.0 °F 94% 30.27 in 3.0 mi Calm Calm - N/A   Clear
11:15 PM 34.5 °F - 32.7 °F 93% 30.26 in 10.0 mi Calm Calm - N/A   Clear
11:35 PM 34.9 °F - 33.3 °F 94% 30.27 in 0.8 mi Calm Calm - N/A   Mist
11:55 PM 34.7 °F - 33.4 °F 95% 30.26 in 7.0 mi Calm Calm - N/A   Clear